Location: Lombard
(41.8800°N, 88.0080°W)
Time: 01:15:28
(UTC-05:00)

Gurwin Techsat 1B - Pass Details

Date: 20 May 2022
Orbit: 811 x 814 km, 98.8° (Epoch: 27 June)

Event Time Altitude Azimuth Distance (km) Brightness Sun altitude
Rises 03:09:24 0° 17° (NNE) 3,344 13.1 -20.1°
Reaches altitude 10° 03:11:47 10° 20° (NNE) 2,408 12.2 -19.8°
Maximum altitude 03:17:04 63° 102° (ESE) 905 8.9 -19.2°
Enters shadow 03:20:09 25° 176° (S) 1,589 9.7 -18.9°
